Lapse_Rate
5.6 5.6 5.4 5.4 5.5 6.0 6.4 6.4 6.2 5.5 5.6 5.6 5.7 5.8 5.8 5.8 5.7 5.6 5.5 5.6 6.2 6.3
5.9 5.9 5.8 5.5 5.4 5.4 5.5 5.9 6.2 6.3 5.8 5.6 5.4 5.4 5.4 5.3 5.4 5.4 5.4 5.0 4.7 5.9
6.1 6.1 6.0 5.7 5.5 5.2 4.9 5.3 5.2 5.4 5.5 5.3 5.6 5.6 5.4 5.1 5.6 5.8 5.6 5.5 5.4 5.5
6.1 5.8 6.0 5.9 5.5 5.1 4.9 4.7 4.7 4.5 4.5 4.4 4.7 5.0 5.4 5.4 5.6 5.5 5.5 5.7 5.7 5.7
6.0 5.9 5.8 5.6 5.4 5.1 4.9 4.6 4.4 4.2 4.0 3.9 3.9 4.3 4.8 5.3 5.3 5.3 5.4 5.9 7.0 6.7
6.2 6.3 6.1 5.5 5.5 5.4 5.3 5.0 5.0 4.5 4.2 4.3 4.2 4.5 4.6 4.5 4.4 5.2 5.6 6.2 6.5 6.5
6.2 6.5 6.3 6.2 6.0 6.0 5.9 5.7 5.7 5.6 5.2 4.7 4.6 4.6 4.5 4.6 4.6 4.9 5.1 5.6 6.1 6.2
6.2 6.3 6.1 6.2 6.3 6.2 6.2 6.2 6.1 5.8 5.5 5.1 4.9 5.3 4.9 5.3 5.3 5.2 4.8 4.8 5.1 5.6
6.1 6.2 5.9 6.1 6.0 6.1 6.1 6.3 6.3 6.3 6.4 6.0 5.8 5.7 5.6 5.4 5.6 5.6 5.8 5.8 5.9 5.6
6.0 6.1 6.0 6.0 6.0 6.0 6.0 6.0 6.2 6.2 6.3 6.4 6.4 6.3 6.0 5.9 5.7 5.7 5.5 5.6 5.6 5.6
5.9 6.1 6.1 6.1 6.0 6.0 5.9 5.8 5.9 6.1 6.2 6.2 6.3 6.3 6.5 6.4 6.2 7.0 6.3 6.0 6.0 5.9
5.8 6.0 6.3 6.3 6.2 6.0 5.9 5.8 5.9 5.7 5.7 5.9 6.1 6.1 6.1 6.0 6.2 6.5 6.8 6.5 6.6 7.0
6.0 6.0 6.1 6.3 6.6 6.6 6.2 6.1 6.0 5.9 6.0 6.1 6.1 6.0 5.8 5.9 6.0 6.0 6.1 5.8 5.9 5.7
6.1 6.2 6.1 6.2 6.4 6.5 6.8 6.6 6.4 6.2 6.3 6.3 6.2 6.3 6.2 6.1 5.9 5.9 6.0 6.2 6.1 5.9
Wind_Speed
13 9 9 12 11 10 10 11 14 14 13 14 15 12 11 8 8 10 9 16 16 14
12 13 12 14 12 10 12 12 14 15 15 15 16 16 14 10 11 10 10 9 11 7
11 12 12 12 15 15 14 16 17 16 16 15 15 15 15 13 14 12 10 10 12 11
12 12 12 13 14 15 14 16 17 17 17 16 16 16 14 13 16 16 16 16 16 15
7 7 11 11 12 14 14 16 16 15 17 17 16 17 16 17 16 17 19 18 18 18
7 4 4 6 6 6 10 12 13 15 17 18 17 17 17 13 15 17 18 18 20 18
4 9 7 2 7 4 9 9 11 14 16 16 16 17 14 16 16 17 18 18 18 19
8 9 9 10 11 12 13 13 9 12 14 15 14 12 15 17 17 17 18 18 17 19
9 9 9 11 12 13 14 15 15 16 17 14 11 24 23 19 15 17 17 16 16 17
8 9 9 10 12 12 13 14 15 16 17 18 17 23 21 22 15 18 17 17 16 15
8 9 10 11 12 12 12 13 13 15 16 16 17 26 21 18 15 16 19 19 18 18
8 9 9 11 11 10 10 11 12 13 16 16 17 29 27 16 14 15 16 15 18 18
8 8 9 9 10 9 9 9 9 11 13 19 16 29 30 20 11 13 11 13 16 26
7 7 7 7 6 6 7 8 7 7 9 10 13 15 26 27 13 10 10 10 10 10
Wind_Direction
13 10 11 6 358 352 353 349 350 349 346 350 340 336 343 338 334 314 295 255 240 253
14 12 13 9 6 2 3 359 2 4 354 354 358 358 360 358 353 351 352 1 359 317
26 17 12 9 11 10 8 14 13 10 8 6 6 6 15 11 10 11 18 19 20 29
28 22 22 19 15 12 17 16 18 15 14 13 13 12 16 16 24 22 28 32 30 29
45 32 30 15 14 15 21 21 24 26 22 19 16 16 16 22 22 25 32 30 32 32
345 104 31 359 336 20 18 32 27 24 27 20 15 25 17 12 28 29 32 31 33 28
10 34 49 241 12 40 44 30 44 35 27 25 19 28 20 20 26 31 34 32 35 35
57 38 35 36 31 37 31 38 40 53 43 28 27 32 24 30 29 29 33 33 30 33
57 50 41 39 42 34 37 32 36 40 43 38 27 25 40 38 36 36 34 32 32 26
55 52 47 48 47 44 40 37 33 35 39 41 29 22 30 46 41 43 36 34 30 32
55 55 49 47 50 48 42 40 39 33 33 41 31 22 22 35 49 48 45 34 32 33
54 51 50 51 46 45 50 45 40 36 33 31 35 29 19 31 42 45 47 42 37 33
73 65 58 50 40 43 49 45 48 41 39 30 29 26 28 24 30 39 36 39 37 33
87 65 65 57 60 64 49 46 42 57 54 55 39 34 30 31 29 26 30 34 31 24